sat.trackr.live / text

‹ back to catalog

STARLINK-32362

NORAD 61845 · 2024-202A

PAYLOAD ACTIVE UNKNOWN

§ Identity

Operator
Country
US
Launch date
2024-11-07
Launch site
AFETR
Launch vehicle
Mass (kg)
RCS (m²)

Purposes: comms

External: N2YO · Heavens-Above · Gunter

§ Orbital elements

Epoch: 2026-05-25T00:51:44.122176Z

Period
94.27 min
Inclination
43.0017°
Eccentricity
0.0001425
Mean motion
15.27560155 rev/d
Perigee alt
482.1 km
Apogee alt
484.1 km
Semi-major
6,861.2 km
B*
2.9391e-5
RAAN
155.5941°
Arg perigee
271.7058°
Mean anomaly
88.3630°
Rev number
8,772

§ Raw data

STARLINK-323621 61845U 24202A   26145.03592734  .00000546  00000+0  29391-4 0  99972 61845  43.0017 155.5941 0001425 271.7058  88.3630 15.27560155 87722

JSON: /api/v1/satellites/61845 · /tle

For live sub-satellite position, see the globe view (requires WebGL).

§ Visibility from observer

Set your observer location to see the next 7 days of passes ≥ 10°. The values pass through the URL so the page stays shareable.

No JS? Fill the form by hand. The geolocation button needs JavaScript.